AirNav   BOSE A20 Aviation Headset
 
 779 users online  

8CL1 Lake Wohlford Resort Airport
Escondido, California, USA

GOING TO ESCONDIDO?


FAA INFORMATION EFFECTIVE 24 MAY 2018

Location

FAA Identifier: 8CL1
Lat/Long: 33-11-10.1360N / 117-00-07.1050W
33-11.168933N / 117-00.118417W
33.1861489 / -117.0019736
(estimated)
Elevation: 1643 ft. / 501 m (estimated)
Variation: 13E (1985)
From city: 5 miles NE of ESCONDIDO, CA
Time zone: UTC -7 (UTC -8 during Standard Time)
Zip code: 92027

Airport Operations

Airport use: Private use. Permission required prior to landing
Activation date: 07/1957
Control tower: no
ARTCC: LOS ANGELES CENTER
FSS: SAN DIEGO FLIGHT SERVICE STATION
Attendance: UNATNDD
Wind indicator: yes
Segmented circle: no

Airport Communications

WX ASOS at RNM (10 nm SE): 132.025 (760-789-0736)
WX ASOS at CRQ (14 nm W): PHONE 760-930-0864
WX AWOS-3P at L18 (16 nm NW): 118.425 (760-723-6073)
WX ASOS at OKB (18 nm W): 127.8 (760-439-9683)

Nearby radio navigation aids

VOR radial/distance  VOR name  Freq  Var
JLIr262/21.1JULIAN VORTAC114.0015E
OCNr084/21.1OCEANSIDE VORTAC115.3015E
MZBr010/26.7MISSION BAY VORTAC117.8015E
PGYr344/34.6POGGI VORTAC109.8014E
HDFr151/(36.6)HOMELAND VOR113.4014E
TIJr342/38.8TIJUANA VOR/DME116.5014E

Airport Services

Parking: hangars
Airframe service: NONE
Powerplant service: NONE
Bottled oxygen: NONE
Bulk oxygen: NONE

Runway Information

Runway 3/21

Dimensions: 1345 x 30 ft. / 410 x 9 m
Surface: treated/dirt, in poor condition
Runway edge markings: RWY 03/21 MARKED WITH LETTER R AT EA END.
RUNWAY 3  RUNWAY 21
Traffic pattern: leftleft
Runway end identifier lights: nono
Obstructions: nonehill, 7500 ft. from runway

Airport Ownership and Management from official FAA records

Ownership: Privately-owned
Owner: JOHN O'FLYNN
25484 LAKE WOHLFORD RD
ESCONDIDO, CA 92027
Phone 760-749-2755
FAX - 760-749-2782
Manager: STEVE AGUEDA
25484 LAKE WOHLFORD RD
ESCONDIDO, CA 92027
Phone 760-749-2755
ADDL CONTACT - SANDRA MACDONALD - 760-749-2755

Airport Operational Statistics

Aircraft based on the field: 27
Single engine airplanes: 27
    
Aircraft operations: avg 86/week
89% transient general aviation
11% local general aviation

Additional Remarks

E98 T-HANGERS IN BAD COND.
100' DROPOFF EACH END OF RWY 03/21.
MOTEL CAFE AND LAKE NEARBY-LOCK ON GATE, KEY AT RESORT OFFICE.
PART 77 OBSTR-PARKED ACFT & HANGERS WITHIN PRIMARY SFC.

Instrument Procedures

There are no published instrument procedures at 8CL1.

Some nearby airports with instrument procedures:

KRNM - Ramona Airport (10 nm SE)
KCRQ - Mc Clellan-Palomar Airport (14 nm W)
L18 - Fallbrook Community Airpark (16 nm NW)
KOKB - Bob Maxwell Memorial Airfield (18 nm W)
KNFG - Camp Pendleton MCAS (Munn Field) Airport (19 nm W)
 
Loc | Ops | Rwys | IFR | FBO | Links
Com | Nav | Svcs | Stats | Notes

AirNav Hotels Sweepstakes
 
Area around 8CL1 (Lake Wohlford Resort Airport)
 
Road maps at: MapQuest Bing Google
 
Aerial photo
WARNING: Photo may not be current or correct
Aerial photo of 8CL1 (Lake Wohlford Resort Airport)
Do you have a better or more recent aerial photo of Lake Wohlford Resort Airport that you would like to share? If so, please send us your photo.

 
Sectional chart

 
Airport distance calculator
Flying to Lake Wohlford Resort Airport? Find the distance to fly.

From to 8CL1

Sunrise and sunset
Times for 27-May-2018
 Local
(UTC-7)
 Zulu
(UTC)
Morning civil twilight05:1412:14
Sunrise05:4212:42
Sunset19:4802:48
Evening civil twilight20:1603:16

Current date and time
Zulu (UTC)  28-May-2018 02:55:30
Local (UTC-7)  27-May-2018 19:55:30
 
METAR
KRNM 
10nm SE 
280153Z 27007KT 10SM CLR 18/12 A2992 RMK AO2 SLP121 T01830117
KCRQ 
14nm W 
280153Z 26006KT 10SM CLR 17/13 A2991 RMK AO2 SLP127 T01720128
KL18 
16nm NW 
280235Z AUTO 21007KT 10SM CLR 16/11 A2993 RMK AO2
KOKB 
18nm W 
280152Z AUTO 26007KT 10SM CLR 18/13 A2991 RMK AO2 SLP128 T01830128
KNFG 
18nm W 
280155Z 24007KT 10SM CLR 18/13 A2991 RMK AO2 SLP127 T01780128
TAF
KCRQ 
14nm W 
271735Z 2718/2818 24008KT P6SM SCT025 FM280100 VRB04KT P6SM OVC011
NOTAMs
Click for the latest NOTAMs
NOTAMs are issued by the DoD/FAA and will open in a separate window not controlled by AirNav.

 

 
 

Would you like to see your business listed on this page?

 If your business provides an interesting product or service to pilots, flight crews, aircraft, or users of the Lake Wohlford Resort Airport, you should consider listing it here.  To start the listing process, click on the button below
 
Add a business
 

Other Pages about Lake Wohlford Resort Airport

Update a link
 
Copyright © AirNav, LLC. All rights reserved. Privacy Policy  Contact